Location: Fours
(44.3167°N, 6.7000°E)
Time: 21:37:41
(UTC+00:00)

N. Korean satellite - Pass Details

Date: 30 September 2021
Orbit: 450 x 495 km, 97.3° (Epoch: 23 October)

Event Time Altitude Azimuth Distance (km) Brightness Sun altitude
Rises 04:19:06 0° 21° (NNE) 2,546 10.7 -13.4°
Reaches altitude 10° 04:21:19 10° 32° (NNE) 1,669 9.9 -13.0°
Maximum altitude 04:24:33 31° 97° (E) 867 8.6 -12.5°
Drops below altitude 10° 04:27:49 10° 161° (SSE) 1,676 9.4 -11.9°
Sets 04:30:02 0° 172° (S) 2,557 10.2 -11.5°
